Meath Environmental Platform

Observations

Time Sensor AQI SAQ Temp °C Hum % Pres Pa CO μg/m³ H₂S μg/m³ NO μg/m³ NO₂ μg/m³ O₃ μg/m³ SO₂ μg/m³ CO₂e PPM VOC PPM PM1 μg/m³ PM2.5 μg/m³ PM4 μg/m³ PM10 μg/m³ TPS µm
Tuesday 11 August 2026
23:42 Trim Patrick St 3 21 56 69,984 0 10.51 1.21 25.74 42.36 3.73 3.71 9.04 9.94
23:41 Trim Patrick St 3 21 56 69,944 0 8.82 1.22 25.72 43.12 3.35 2 7.56 8.31
23:40 Trim Patrick St 3 21 56 69,887 0 9.35 1.22 28.3 53.58 3.79 3.71 9 9.9
23:40 Trim Market St 2 21.7 53 55,915 0 0 1.28 14.51 60.82 0 0.71 2.84 3.15
23:39 Trim Patrick St 3 21 56 69,869 0 8.56 1.22 24.89 43.63 4.01 2.86 7.52 8.28
23:38 Trim Patrick St 3 21 56 69,816 0 7.9 1.21 23.33 44.35 3.36 3.71 8.26 9.09
23:38 Trim Market St 2 21.7 53 55,912 0 0 1.26 19.68 58.97 0 0.71 3.36 3.88
23:37 Trim Patrick St 3 21 53 69,804 0 9.75 1.24 21.76 52.14 3.36 3.71 8.5 9.35
23:36 Trim Patrick St 3 21 55 69,793 0 10.25 1.21 44.09 39.42 4.56 3.71 8.33 9.16
23:36 Trim Market St 2 21.7 52 55,831 0 0 1.29 30.85 59.42 0 0.71 2.86 3.14
23:35 Trim Patrick St 3 21 55 69,744 0 9.56 1.21 29.52 53.66 4.25 3.71 8.34 9.18
23:35 Trim Market St 2 21.7 52 55,773 0 0 1.29 27.09 61.12 0 0.71 3.38 3.87
23:34 Trim Patrick St 3 21.1 56 69,711 0 8.14 1.22 20.26 45.11 3.6 2.86 7.54 8.3
23:33 Trim Market St 2 21.7 52 55,743 0 0 1.28 15.8 60.57 0 0.71 2.87 3.13
23:31 Trim Patrick St 3 21.1 56 69,660 0 8.43 1.24 21.99 48.22 3.74 2.86 7.55 8.3
23:30 Trim Patrick St 3 21.1 56 69,656 0 9.37 1.24 26.45 44.1 3.79 2.86 8.29 9.12
23:29 Trim Patrick St 3 21.1 55 69,652 0 8.37 1.25 28.92 51.14 3.7 2.86 6.84 7.53
23:28 Trim Patrick St 3 21.1 55 69,624 0 8.61 1.25 16.94 51.19 4.1 3.71 8.36 9.19
23:26 Trim Patrick St 3 21.1 55 69,599 0 6.18 1.23 12.33 39.72 3.85 3.71 7.6 8.36
23:25 Trim Patrick St 3 21.2 55 69,583 0 8.61 1.22 31.22 50.53 4.18 3.71 8.38 9.21